Погода в Амурске

Россия / Хабаровский край     50°13′36″N   136°54′38″E
темп.,
°C
ветер,
м/с
пор.,
м/с
влажн.,
%
обл.,
%
осадки,
мм/ч
давл.,
гПа
погр.,
м
27 ноября, сб
сб2701:00−14юз229758 0.0 102212
04:00−16ююз229979 0.0 102420
07:00−16ю2410097 0.0 102548
10:00−13ююз399793 0.1 1026210
13:00−8ююз5891100 0.1 1025416
16:00−9ююз489382 0.1 1026273
19:00−13ю3699100 0.0 1027106
22:00−12ююз3997100 0.1 1028195
28 ноября, вс
вс2801:00−11ююз51295100 0.1 1028383
04:00−11ююз51293100 0.2 1028403
07:00−12ююз61394100 0.1 1028444
10:00−12ююз61394100 0.1 1027492
13:00−10ююз71491100 0.1 1025568
16:00−10ююз61592100 0.1 1023521
19:00−11ююз3895100 0.0 1021167
22:00−10ююз31094100 0.0 1020285
29 ноября, пн
пн2901:00−11юз1296100 0.0 101820
04:00−12ссз1197100 0.0 101721
07:00−10с2495100 0.3 1016197
10:00−10ссв4994100 1.8 1017372
13:00−7ссв478241 0.3 1018548
16:00−9св119017 0.3 102013
19:00−14юз229890 0.0 102315
22:00−15ю1110081 0.0 102413
30 ноября, вт
вт3001:00−15ю2698100 0.1 102597
04:00−14ююз369697 0.3 1025171
07:00−14ю2597100 0.1 1024144
10:00−14ю3797100 0.1 1023236
13:00−11ююз4789100 0.0 1021354
16:00−12ююз1293100 0.0 101967
19:00−14с2296100 0.0 101829
22:00−12с4992100 0.0 1016239
1 декабря, ср
ср101:00−11с81588100 0.0 1013445
04:00−12с101892100 0.4 1009620
07:00−13с122093100 3.3 1005698
10:00−12с122092100 7.3 1003762
13:00−11с132190100 1.8 999876
16:00−10с142288100 2.6 9941076
19:00−10с152388100 3.5 990933
22:00−9с142286100 5.1 9891002